[[{"header":{"parameterUnit":"m.s-1","parameterCategory":1,"la1":30.2991,"la2":30.254,"lo1":-89.0895,"lo2":-89.0444,"dy":0.0017,"dx":0.0017,"nx":28,"ny":28,"refTime":"2024-09-25T09:00:00:Z","depth":0,"parameterNumber":2,"parameterNumberName":"U-component_of_WINDS"},"data":[0,0,0,0,0,0,0,0,0,0,0,0,0,0,0,0,0,0,0,0,0,0,0,0,0,0,0,0,0,0,0,0,0,0,0,0,0,0,0,0,0,0,0,0,0,0,0,0,0,0,0,0,0,0,0,0,0,0,-0.0648,-0.0648,0,-0.0643,-0.0643,-0.0643,-0.0623,-0.0623,-0.0622,-0.0622,-0.0618,-0.0619,-0.0619,0,0,0,0,0,0,0,0,0,0,0,0,0,-0.0642,-0.0642,-0.0648,-0.0648,-0.0648,-0.0643,-0.0643,-0.0643,-0.0623,-0.0623,-0.0622,-0.0622,-0.0618,-0.0619,-0.0619,0,0,0,0,0,0,0,0,0,0,0,0,0,-0.0642,-0.0642,-0.0648,-0.0637,-0.0636,-0.0643,-0.0643,-0.0643,-0.0623,-0.0623,-0.0622,-0.0621,-0.0618,-0.0618,-0.0619,-0.0636,0,0,-0.062,-0.0621,0,0,0,0,0,0,0,0,-0.0642,-0.0642,-0.0639,-0.0638,-0.0637,-0.0633,-0.0639,-0.064,-0.0624,-0.0628,-0.0622,-0.0621,-0.0624,-0.0624,-0.0624,-0.0636,-0.0635,-0.0621,-0.0621,-0.0621,-0.0621,0,0,0,0,0,0,0,-0.0642,-0.0642,-0.0646,-0.0639,-0.0638,-0.0633,-0.0633,-0.064,-0.063,-0.0628,-0.0626,-0.0626,-0.0623,-0.0624,-0.0624,-0.0635,-0.0621,-0.0621,-0.0621,-0.0621,-0.0661,-0.0662,0,0,0,0,0,0,-0.0643,-0.0642,-0.0646,-0.0646,-0.0638,-0.0634,-0.0633,-0.0635,-0.063,-0.0628,-0.0627,-0.0625,-0.0623,-0.0624,-0.0624,-0.0644,-0.0621,-0.0621,-0.0622,-0.0661,-0.0662,-0.0662,0,0,0,0,0,0,-0.0643,-0.0643,-0.0646,-0.0643,-0.0643,-0.0635,-0.0637,-0.0635,-0.0636,-0.0629,-0.0627,-0.0629,-0.0623,-0.0623,-0.0633,-0.0644,-0.0622,-0.0622,-0.066,-0.0661,-0.0662,-0.0685,0,0,0,0,0,0,-0.0643,-0.0644,-0.0649,-0.0644,-0.0644,-0.0655,-0.0638,-0.0636,-0.0637,-0.0635,-0.0631,-0.063,-0.0622,-0.0633,-0.0634,-0.0644,-0.0623,-0.0659,-0.066,-0.0662,-0.0683,-0.0687,-0.069,0,0,0,0,0,-0.0643,-0.0656,-0.065,-0.065,-0.0651,-0.0656,-0.0656,-0.0647,-0.0638,-0.0644,-0.0639,-0.063,-0.0642,-0.0634,-0.0635,-0.0646,-0.0658,-0.066,-0.0662,-0.0682,-0.0686,-0.0689,0,0,0,0,0,0,-0.0663,-0.0655,-0.0648,-0.066,-0.0659,-0.0652,-0.066,-0.0651,-0.0653,-0.0651,-0.0641,-0.064,-0.0652,-0.0649,-0.064,-0.0662,-0.0649,-0.0651,-0.0664,-0.0667,-0.0671,-0.0672,-0.0623,0,0,0,0,0,-0.0669,-0.0673,-0.0666,-0.0677,-0.0677,-0.0669,-0.067,-0.0664,-0.0662,-0.0662,-0.0658,-0.0657,-0.0661,-0.0664,-0.0667,-0.0682,-0.0682,-0.069,-0.0694,-0.0696,-0.0699,-0.0708,-0.0712,-0.0668,-0.0668,-0.0668,0,0,-0.0682,-0.0678,-0.0681,-0.0681,-0.068,-0.0685,-0.0668,-0.0674,-0.0679,-0.0663,-0.0672,-0.0669,-0.0668,-0.0681,-0.0686,-0.0679,-0.0711,-0.0699,-0.0701,-0.0702,-0.071,-0.0714,-0.0718,-0.0669,-0.0669,-0.0669,0,0,-0.0707,-0.0704,-0.0713,-0.0712,-0.071,-0.0704,-0.0706,-0.0701,-0.0699,-0.0708,-0.0697,-0.0702,-0.0708,-0.0708,-0.0709,-0.0735,-0.0727,-0.0736,-0.0754,-0.0763,-0.0767,-0.077,-0.078,-0.0784,-0.0738,-0.0739,-0.0739,0,-0.0723,-0.073,-0.072,-0.0727,-0.0728,-0.0713,-0.0723,-0.0723,-0.0722,-0.0723,-0.0715,-0.0724,-0.0722,-0.0735,-0.0742,-0.0742,-0.0746,-0.0737,-0.0767,-0.077,-0.0773,-0.0783,-0.0787,-0.074,-0.074,-0.074,-0.0739,0,-0.0751,-0.0756,-0.0764,-0.0763,-0.0765,-0.0774,-0.0765,-0.0768,-0.0761,-0.0757,-0.0767,-0.0764,-0.0767,-0.0769,-0.0763,-0.0782,-0.0778,-0.0769,-0.0755,-0.0778,-0.0788,-0.0791,-0.0742,-0.0741,-0.0741,-0.0741,0,0,-0.079,-0.0783,-0.0786,-0.0786,-0.0783,-0.0787,-0.0795,-0.0798,-0.0801,-0.0801,-0.0809,-0.0815,-0.0806,-0.0807,-0.08,-0.0808,-0.0831,-0.0798,-0.0798,-0.0805,-0.0854,-0.0862,-0.0867,-0.0825,-0.0825,-0.0826,-0.0855,0,-0.0815,-0.0829,-0.082,-0.0835,-0.0841,-0.0827,-0.0834,-0.0834,-0.083,-0.0834,-0.083,-0.0835,-0.0823,-0.0823,-0.083,-0.0827,-0.0841,-0.0824,-0.0833,-0.0834,-0.0835,-0.0872,-0.088,-0.0907,-0.0858,-0.0859,-0.0859,0,-0.0847,-0.0848,-0.0864,-0.086,-0.0862,-0.0869,-0.0871,-0.0875,-0.0874,-0.0871,-0.0872,-0.0864,-0.0873,-0.0858,-0.0871,-0.086,-0.0863,-0.0862,-0.0863,-0.0864,-0.0849,-0.0876,-0.0916,-0.092,-0.0865,-0.0864,-0.0864,0,-0.0876,-0.0881,-0.0892,-0.0892,-0.0887,-0.0893,-0.0891,-0.0889,-0.0892,-0.0894,-0.0895,-0.0898,-0.09,-0.0903,-0.0896,-0.0886,-0.0911,-0.0895,-0.0909,-0.091,-0.0916,-0.0916,-0.0959,-0.0916,-0.0916,-0.0915,-0.0915,0,-0.0906,-0.0917,-0.0905,-0.0912,-0.0924,-0.0913,-0.0925,-0.0922,-0.0921,-0.0928,-0.0916,-0.0922,-0.0912,-0.0917,-0.0912,-0.0924,-0.0925,-0.0923,-0.0922,-0.0925,-0.0926,-0.0928,-0.0927,-0.0917,-0.0916,-0.0916,-0.0916,0,-0.0941,-0.0933,-0.0944,-0.0939,-0.0938,-0.0947,-0.0943,-0.0949,-0.0944,-0.0953,-0.0954,-0.0947,-0.0953,-0.0946,-0.0952,-0.0948,-0.0965,-0.096,-0.0966,-0.0965,-0.098,-0.0979,-0.1027,-0.1033,-0.0985,-0.0985,-0.0986,0,-0.0962,-0.097,-0.0965,-0.0968,-0.0968,-0.0973,-0.0975,-0.0965,-0.0969,-0.0969,-0.0975,-0.098,-0.0984,-0.0995,-0.0991,-0.0995,-0.0991,-0.1008,-0.0992,-0.0996,-0.0994,-0.0994,-0.0995,-0.1011,-0.1012,-0.1012,-0.1013,0,-0.1,-0.0995,-0.0999,-0.1002,-0.1005,-0.1007,-0.1007,-0.1011,-0.1001,-0.1005,-0.1011,-0.1014,-0.102,-0.1026,-0.1029,-0.1028,-0.102,-0.1018,-0.1021,-0.1026,-0.1029,-0.1029,-0.0976,-0.1017,-0.1016,-0.1016,-0.1016,-0.1016,-0.1029,-0.1036,-0.1034,-0.1039,-0.1038,-0.104,-0.1046,-0.1042,-0.1046,-0.105,-0.1044,-0.1052,-0.1052,-0.1055,-0.1056,-0.1062,-0.1056,-0.1061,-0.1062,-0.1064,-0.1067,-0.1027,-0.1063,-0.1063,-0.1063,-0.1062,-0.1062,0,-0.1068,-0.1066,-0.107,-0.1072,-0.1076,-0.1066,-0.1067,-0.1071,-0.1078,-0.1078,-0.1082,-0.109,-0.1096,-0.1092,-0.1097,-0.1103,-0.1099,-0.1105,-0.1105,-0.1106,-0.1072,-0.1069,-0.1108,-0.1108,-0.1108,-0.1108,-0.1108,-0.1108,-0.1088,-0.11,-0.1096,-0.1107,-0.1106,-0.1113,-0.1115,-0.1116,-0.1116,-0.1125,-0.113,-0.1127,-0.1126,-0.1131,-0.1136,-0.1135,-0.1138,-0.1145,-0.1143,-0.1112,-0.1108,-0.1103,-0.1101,-0.1146,-0.1146,-0.1176,-0.1176,-0.1176]},{"header":{"parameterUnit":"m.s-1","parameterCategory":1,"la1":30.2991,"la2":30.254,"lo1":-89.0895,"lo2":-89.0444,"dy":0.0017,"dx":0.0017,"nx":28,"ny":28,"refTime":"2024-09-25T09:00:00:Z","depth":0,"parameterNumber":3,"parameterNumberName":"V-component_of_WINDS"},"data":[0,0,0,0,0,0,0,0,0,0,0,0,0,0,0,0,0,0,0,0,0,0,0,0,0,0,0,0,0,0,0,0,0,0,0,0,0,0,0,0,0,0,0,0,0,0,0,0,0,0,0,0,0,0,0,0,0,0,2.9787,2.9786,0,2.9772,2.9772,2.9772,2.9718,2.9717,2.9716,2.9715,2.97,2.97,2.9701,0,0,0,0,0,0,0,0,0,0,0,0,0,2.9766,2.9767,2.9787,2.9786,2.9786,2.9772,2.9772,2.9772,2.9719,2.9717,2.9716,2.9714,2.9699,2.97,2.9701,0,0,0,0,0,0,0,0,0,0,0,0,0,2.9766,2.9767,2.9787,2.9758,2.9755,2.9772,2.9772,2.9772,2.9719,2.9717,2.9715,2.9714,2.9699,2.97,2.9701,2.9744,0,0,2.9704,2.9705,0,0,0,0,0,0,0,0,2.9766,2.9767,2.9762,2.976,2.9757,2.9745,2.9759,2.9763,2.9719,2.9733,2.9715,2.9713,2.9716,2.9716,2.9717,2.9744,2.9743,2.9705,2.9705,2.9706,2.9706,0,0,0,0,0,0,0,2.9766,2.9767,2.9781,2.9762,2.9759,2.9745,2.9743,2.976,2.9735,2.9731,2.9727,2.9727,2.9714,2.9716,2.9716,2.9743,2.9705,2.9706,2.9706,2.9707,2.9802,2.9803,0,0,0,0,0,0,2.977,2.9767,2.9781,2.978,2.9757,2.9747,2.9745,2.9751,2.9735,2.973,2.9728,2.9724,2.9715,2.9715,2.9716,2.9763,2.9706,2.9707,2.9707,2.98,2.9802,2.9804,0,0,0,0,0,0,2.977,2.9772,2.9782,2.9773,2.9773,2.9749,2.9757,2.9752,2.9753,2.9732,2.9727,2.9735,2.9714,2.9714,2.9737,2.9762,2.9707,2.9708,2.9798,2.98,2.9803,2.986,0,0,0,0,0,0,2.977,2.9772,2.9789,2.9774,2.9774,2.9804,2.9758,2.9753,2.9755,2.975,2.9737,2.9733,2.9712,2.9736,2.9738,2.9762,2.9709,2.9795,2.9799,2.9802,2.9855,2.9864,2.9871,0,0,0,0,0,2.9769,2.9806,2.979,2.9792,2.9794,2.9806,2.9806,2.9782,2.9758,2.9773,2.976,2.9733,2.9759,2.9739,2.9741,2.9766,2.9793,2.9798,2.9802,2.9852,2.9862,2.9871,0,0,0,0,0,0,2.9825,2.9803,2.9786,2.9819,2.9814,2.9797,2.9816,2.9794,2.9796,2.9791,2.9761,2.9758,2.9785,2.9778,2.9756,2.9805,2.9772,2.9777,2.9809,2.9819,2.9826,2.9827,2.971,0,0,0,0,0,2.9841,2.9853,2.9833,2.9864,2.9863,2.984,2.9845,2.9826,2.9821,2.9818,2.9806,2.9802,2.9808,2.9813,2.9819,2.9855,2.985,2.9873,2.9881,2.9887,2.9891,2.9907,2.9916,2.9818,2.9818,2.9818,0,0,2.9875,2.9864,2.9874,2.9875,2.987,2.9881,2.9839,2.9854,2.9862,2.9821,2.9841,2.9832,2.9825,2.9854,2.9866,2.9848,2.9917,2.9893,2.9898,2.9898,2.9912,2.9922,2.993,2.9821,2.982,2.982,0,0,2.9941,2.9935,2.9959,2.9954,2.9947,2.9931,2.9937,2.9923,2.9915,2.9935,2.9903,2.9913,2.9926,2.9921,2.992,2.9984,2.9958,2.9986,3.0027,3.0043,3.0051,3.0057,3.0078,3.0086,2.9991,2.9991,2.9991,0,2.9983,3.0,2.9974,2.9991,2.9991,2.9954,2.9977,2.9974,2.9969,2.997,2.9951,2.9964,2.9957,2.9983,2.9999,3.0,3.0004,2.9987,3.0052,3.0058,3.0064,3.0083,3.0091,2.9994,2.9994,2.9993,2.9993,0,3.0051,3.0064,3.0084,3.0078,3.0082,3.0102,3.0078,3.0084,3.0066,3.0052,3.0072,3.0062,3.0063,3.0068,3.0051,3.0091,3.008,3.0057,3.0022,3.0077,3.0094,3.0101,2.9999,2.9997,2.9997,2.9996,0,0,3.0152,3.0131,3.0139,3.0135,3.0124,3.0132,3.015,3.0151,3.0156,3.0154,3.0166,3.0177,3.0155,3.0154,3.0136,3.015,3.0198,3.0125,3.0124,3.0136,3.024,3.0256,3.0265,3.0182,3.0183,3.0185,3.0239,0,3.0213,3.0242,3.0218,3.0251,3.026,3.0225,3.024,3.0234,3.0222,3.0228,3.0214,3.0221,3.0193,3.0191,3.0204,3.019,3.0218,3.0186,3.0192,3.0192,3.0192,3.0274,3.0291,3.0343,3.0246,3.0247,3.0248,0,3.0288,3.0288,3.0321,3.0305,3.0309,3.0323,3.0321,3.0328,3.0319,3.0309,3.0308,3.0285,3.03,3.0267,3.0286,3.0265,3.0266,3.0259,3.0261,3.0258,3.0222,3.0272,3.036,3.0367,3.0259,3.0258,3.0257,0,3.0355,3.0363,3.0383,3.0382,3.0365,3.0375,3.0368,3.0358,3.036,3.0359,3.0359,3.036,3.036,3.036,3.0337,3.0316,3.0358,3.0324,3.0349,3.0349,3.0357,3.0357,3.0445,3.0363,3.0362,3.0362,3.0362,0,3.0424,3.0445,3.0413,3.0425,3.0447,3.042,3.0443,3.0432,3.0424,3.0433,3.0403,3.0412,3.0382,3.0388,3.037,3.0387,3.0388,3.0379,3.0374,3.038,3.0381,3.0379,3.0374,3.0364,3.0364,3.0363,3.0363,0,3.0502,3.0481,3.0501,3.0483,3.0478,3.0495,3.0479,3.0489,3.0475,3.0486,3.0488,3.0465,3.0469,3.0447,3.0448,3.0436,3.0461,3.0451,3.0464,3.046,3.0484,3.0481,3.0572,3.0581,3.0496,3.0497,3.0497,0,3.0546,3.0561,3.0545,3.0548,3.0543,3.055,3.0551,3.0525,3.0527,3.0518,3.0529,3.0531,3.0531,3.0541,3.0523,3.0524,3.0512,3.0543,3.0511,3.0517,3.0509,3.0507,3.0508,3.0549,3.055,3.0551,3.0552,0,3.0627,3.0615,3.0618,3.0617,3.0619,3.0617,3.0613,3.0618,3.059,3.0594,3.0598,3.0598,3.0599,3.06,3.0597,3.0589,3.0565,3.0563,3.0568,3.0573,3.0579,3.0574,3.0479,3.056,3.0559,3.0559,3.0558,3.0558,3.0687,3.0698,3.0687,3.0691,3.0685,3.0682,3.069,3.0676,3.0679,3.0677,3.0662,3.0668,3.0658,3.0651,3.0646,3.065,3.0634,3.0643,3.0644,3.0646,3.0649,3.0581,3.0649,3.0649,3.0649,3.0649,3.0648,0,3.0764,3.0755,3.0759,3.0753,3.0756,3.0734,3.0728,3.0731,3.0738,3.073,3.0731,3.0735,3.0736,3.0719,3.0718,3.0725,3.0713,3.0725,3.0723,3.0721,3.0664,3.0659,3.0734,3.0734,3.0734,3.0734,3.0734,3.0734,3.0804,3.082,3.0807,3.082,3.0811,3.0817,3.0816,3.0812,3.0805,3.0811,3.0812,3.0801,3.0789,3.0787,3.0787,3.0781,3.0781,3.0796,3.0787,3.0734,3.0725,3.0717,3.0712,3.0797,3.0797,3.0843,3.0844,3.0844]}]]